Regional Weather Roundup
Issued by NWS

Home | Current Version | Previous Version | Graphics & Text | Print | Product List | Glossary On
Versions: 1 2 3 4 5 6 7 8 9 10 11 12 13 14 15 16 17 18 19 20 21 22 23 24 25 26 27 28 29 30 31 32 33 34 35 36 37 38 39 40 41 42 43 44 45 46 47 48 49 50
585
ASUS43 KOAX 171802
RWRNE

WEATHER ROUNDUP FOR NEBRASKA
NATIONAL WEATHER SERVICE OMAHA NE
100 PM CDT TUE OCT 17 2017

NOTES: SATELLITE DATA IS BEING USED TO AUGMENT CLOUD COVER ABOVE
       12000 FEET.
       "FAIR" INDICATES FEW OR NO CLOUDS BELOW 12,000 FEET WITH NO
       SIGNIFICANT WEATHER AND/OR OBSTRUCTIONS TO VISIBILITY.


NEZ001>004-019>022-054>056-171900-
NEBRASKA PANHANDLE

CITY           SKY/WX    TMP DP  RH WIND       PRES   REMARKS
SCOTTSBLUFF    SUNNY     69  27  20 W6        30.12F
6HR MIN TEMP:  26; 6HR MAX TEMP:  69;

ALLIANCE       SUNNY     71  15  11 W15G24    30.10F
6HR MIN TEMP:  25; 6HR MAX TEMP:  72;

CHADRON        SUNNY     70  19  14 N3        30.06F
6HR MIN TEMP:  29; 6HR MAX TEMP:  70;

GORDON         FAIR      70  28  20 W9        30.07F
6HR MIN TEMP:  29; 6HR MAX TEMP:  71;

KIMBALL        SUNNY     74  17  11 W15G24    30.17F
SIDNEY         SUNNY     75  17  11 SW20G26   30.16F
6HR MIN TEMP:  29; 6HR MAX TEMP:  76;

$$

NEZ057>060-069>072-079>082-171900-
SOUTHWEST NEBRASKA

CITY           SKY/WX    TMP DP  RH WIND       PRES   REMARKS
NORTH PLATTE   SUNNY     72  41  32 S5        30.10F
6HR MIN TEMP:  32; 6HR MAX TEMP:  72;

IMPERIAL       SUNNY     74  22  14 SW3       30.13F
6HR MIN TEMP:  36; 6HR MAX TEMP:  74;

LEXINGTON      SUNNY     72  40  30 CALM      30.11F
MCCOOK         SUNNY     71  38  29 VRB3      30.13F
6HR MIN TEMP:  35; 6HR MAX TEMP:  71;

OGALLALA       SUNNY     70  29  22 S3        30.12F
$$

NEZ005>010-023>029-035>040-094-171900-
NORTH CENTRAL NEBRASKA

CITY           SKY/WX    TMP DP  RH WIND       PRES   REMARKS
VALENTINE      SUNNY     77  30  17 SW13      30.04F
6HR MIN TEMP:  35; 6HR MAX TEMP:  77;

AINSWORTH      SUNNY     72  35  25 SW13      30.07F
BROKEN BOW     SUNNY     73  41  31 S6        30.09F
6HR MIN TEMP:  36; 6HR MAX TEMP:  73;

O`NEILL        SUNNY     74  44  33 S7        30.06F
ORD            SUNNY     74  40  29 S3        30.07F
6HR MIN TEMP:  35; 6HR MAX TEMP:  74;

$$

NEZ041-046>049-061>064-073>077-083>087-171900-
SOUTH CENTRAL NEBRASKA

CITY           SKY/WX    TMP DP  RH WIND       PRES   REMARKS
GRAND ISLAND   SUNNY     75  38  26 CALM      30.08F
6HR MIN TEMP:  39; 6HR MAX TEMP:  75;

AURORA         SUNNY     72  41  32 CALM      30.08F
HASTINGS       SUNNY     73  42  32 CALM      30.09F
6HR MIN TEMP:  40; 6HR MAX TEMP:  73;

HEBRON         SUNNY     68  41  37 S6        30.09F
HOLDREGE       SUNNY     73  37  27 CALM      30.10F
KEARNEY        SUNNY     73  38  27 CALM      30.10F
YORK           SUNNY     68  43  40 CALM      30.08F
$$

NEZ011>018-030>034-042>045-171900-
NORTHEAST NEBRASKA

CITY           SKY/WX    TMP DP  RH WIND       PRES   REMARKS
NORFOLK        SUNNY     71  42  35 S3        30.04F
6HR MIN TEMP:  34; 6HR MAX TEMP:  71;

ALBION         SUNNY     74  38  27 CALM      30.07F
BLAIR          SUNNY     64  44  47 S8        30.08F
COLUMBUS       SUNNY     68  45  43 S5        30.08F
FREMONT        SUNNY     65  43  45 S5        30.08F
TEKAMAH        SUNNY     67  42  40 S6        30.07F
6HR MIN TEMP:  41; 6HR MAX TEMP:  67;

WAYNE          SUNNY     73  40  30 CALM      30.05F
$$

NEZ050>053-065>068-078-088>093-171900-
SOUTHEAST NEBRASKA

CITY           SKY/WX    TMP DP  RH WIND       PRES   REMARKS
LINCOLN        SUNNY     67  44  43 S7        30.09F
6HR MIN TEMP:  43; 6HR MAX TEMP:  67;

OMAHA EPPLEY   SUNNY     65  44  46 S10       30.09F
6HR MIN TEMP:  47; 6HR MAX TEMP:  65;

FALLS CITY     SUNNY     68  44  42 S14       30.10F
6HR MIN TEMP:  48; 6HR MAX TEMP:  68;

NEBRASKA CITY  SUNNY     67  46  46 S12       30.10F
PLATTSMOUTH    SUNNY     68  45  43 S8        30.09F
$$

NEZ044-045-051>053-067-171900-
OMAHA AREA

CITY           SKY/WX    TMP DP  RH WIND       PRES   REMARKS
OMAHA EPPLEY   SUNNY     65  44  46 S10       30.09F
6HR MIN TEMP:  47; 6HR MAX TEMP:  65;

BLAIR          SUNNY     64  44  47 S8        30.08F
FREMONT        SUNNY     65  43  45 S5        30.08F
MILLARD        SUNNY     67  45  45 S5        30.08F
OFFUTT AFB     SUNNY     66  45  46 S7        30.08F
PLATTSMOUTH    SUNNY     68  45  43 S8        30.09F
WAHOO          FAIR      67  42  39 S7        30.08F
$$




USA.gov is the U.S. government's official web portal to all federal, state and local government web resources and services.